Terminal Aerodrome Forecast
Issued by NWS Bismarck, ND

Home | Current Version | Previous Version | Graphics & Text | Print | Product List | Glossary On
Versions: 1 2 3 4 5 6 7 8 9 10 11 12 13 14 15 16 17 18 19 20 21
000
FTUS43 KBIS 222327
TAFISN
TAF
KISN 222327Z 2300/2324 04005KT P6SM BKN110
     FM230900 08005KT P6SM SCT060 BKN200
     FM231500 11008KT P6SM SCT050 BKN200
     FM231800 11016G24KT 6SM -SHRA VCTS SCT050CB BKN080
     FM232000 10014G23KT P6SM VCTS SCT045CB BKN060=

USA.gov is the U.S. government's official web portal to all federal, state and local government web resources and services.